Regional Weather Roundup
Issued by NWS Wakefield, VA

Home | Current Version | Previous Version | Text Only | Print | Product List | Glossary Off
Versions: 1 2 3 4 5 6 7 8 9 10 11 12 13 14 15 16 17 18 19 20 21 22 23 24 25 26 27

000
ASUS41 KAKQ 242014
RWRAKQ

REGIONAL WEATHER ROUNDUP
NATIONAL WEATHER SERVICE WAKEFIELD VA
300 PM EST FRI FEB 24 2017

Note: "fair" indicates few or no clouds below 12,000 feet with no
significant weather and/or obstructions to visibility. * = Denotes
station may not report precipitation (e.g., rain,snow,etc.),
thunder or fog.

VAZ042-051-052>054-056-242100-
NORTHERN VIRGINIA

CITY           SKY/WX    TMP DP  RH WIND       PRES   REMARKS
WASH NATIONAL  PTSUNNY   72  54  53 S15       29.83F
DULLES         PTSUNNY   74  49  41 S14G24    29.81F
FORT BELVOIR   SUNNY     76  53  46 SE9G18    29.83F
QUANTICO       MOSUNNY   61  52  72 S15       29.84F
FREDERICKSBRG* MOSUNNY   76  54  46 S8        29.82F
STAFFORD*      MOSUNNY   74  52  45 S7        29.87S
WARRENTON      MOSUNNY   79  46  30 S13       29.82S
CULPEPER*      MOSUNNY   76  52  43 S7        29.82F
MANASSAS*        N/A     77  52  41 S10G20    29.82F
LEESBURG*      MOSUNNY   77  54  44 MISG      29.82S
WINCHESTER     SUNNY     73  50  43 S15       29.78F
FRONT ROYAL*   NOT AVBL
LURAY*         NOT AVBL
$$

VAZ048-049-060>072-079>083-242100-
CENTRAL AND SOUTH CENTRAL VIRGINIA

CITY           SKY/WX    TMP DP  RH WIND       PRES   REMARKS
RICHMOND       MOSUNNY   75  56  51 S9        29.85F
CHESTERFIELD*  FAIR      75  46  35 S12       29.86F
PETERSBURG*    MOSUNNY   75  53  45 SE6       29.86F
HANOVER        MOSUNNY   75  53  46 S12       29.86F
TAPPAHANNOCK*  PTSUNNY   74  48  38 SE5       29.86F
QUINTON*       NOT AVBL
CHARLOTTSVILLE MOSUNNY   77  51  40 SE10      29.81F
GORDONSVILLE*  NOT AVBL
ORANGE*        MOSUNNY   73  50  43 SE8G20    29.83F
LOUISA*        PTSUNNY   77  55  47 SW6       29.82F
BUMPASS*       NOT AVBL
FARMVILLE*     PTSUNNY   75  54  47 S10       29.83F
CREWE*         NOT AVBL
FORT PICKETT*  NOT AVBL
CHASE CITY*    NOT AVBL
CLARKSVILLE*   NOT AVBL
SOUTH HILL*    MOSUNNY   72  57  58 SE6       29.90F
LAWRENCEVILLE* NOT AVBL
EMPORIA*       PTSUNNY   73  55  53 CALM      29.88F
$$

VAZ088>098-242100-
SOUTHEAST VIRGINIA

CITY           SKY/WX    TMP DP  RH WIND       PRES   REMARKS
NORFOLK        SUNNY     76  58  53 SE14      29.86F
VIRGINIA BEACH MOSUNNY   69  58  67 SE10      29.88S
NORFOLK NAVAL  PTSUNNY   73  57  57 CALM      29.88F
WEST POINT*    MOSUNNY   73  54  51 SE7       29.87F
SALUDA*        NOT AVBL
NEWPORT NEWS   PTSUNNY   72  57  59 E13       29.87
LANGLEY AFB    PTSUNNY   67  58  71 SE10      29.87F
FORT EUSTIS    MOSUNNY   79  57  46 VRB5      29.84F
WILLIAMSBURG*  MOSUNNY   79  59  50 SE5       29.87F
HR EXEC AP*    NOT AVBL
FRANKLIN*      PTSUNNY   75  54  47 S7        29.86F
US460-WAKEFLD  PTSUNNY   75  57  53 VRB6      29.86F
$$

VAZ020-022-025-037-045-242100-
WEST CENTRAL AND SOUTHWEST VIRGINIA

CITY           SKY/WX    TMP DP  RH WIND       PRES   REMARKS
STAUNTON*      MOSUNNY   73  51  44 S12G21    29.83S
WAYNESBORO*    NOT AVBL
HOT SPRINGS VA MOSUNNY   63  45  51 S7G16     29.89F
LYNCHBURG      MOSUNNY   74  50  42 S13G20    29.84F
DANVILLE       MOSUNNY   76  53  44 VRB7      29.83F
SOUTH BOSTON*  NOT AVBL
MARTINSVILLE   PTSUNNY   74  51  44 W3        29.86F
ROANOKE        MOSUNNY   75  51  43 S14G20    29.83F
BLACKSBURG     SUNNY     71  51  49 S6        29.87F
DUBLIN*        SUNNY     73  51  45 S8        29.84F
MARION*        PTSUNNY   74  49  41 S7        29.84F
HILLSVILLE*    MOSUNNY   67  53  61 CALM      29.86F
RICHLANDS*     FAIR      72  44  35 SW10G18   29.81F
WISE*          SUNNY     70  43  37 S17       29.81F
ABINGDON*      SUNNY     76  46  34 W10G16    29.80F
$$

MDZ021>025-VAZ099-100-242100-
SOUTHERN MARYLAND AND THE DELMARVA PENINSULA

CITY           SKY/WX    TMP DP  RH WIND       PRES   REMARKS
PATUXENT RIVER PTSUNNY   63  56  78 SE12      29.86F
BAY BRIDGE APT SUNNY     72  55  56 S15       29.86S
LEONARDTOWN    MOSUNNY   72  54  53 S7        29.87F
DOVER          PTSUNNY   73  59  61 E8        29.86F
GEORGETOWN     PTSUNNY   74  56  53 SW12      29.88F
EASTON         PTSUNNY   73  55  53 MISG      29.90F
CAMBRIDGE      PTSUNNY   72  57  60 S8G17     29.87F
SALISBURY      PTSUNNY   71  58  63 S15G22    29.89S
OCEAN CITY     SUNNY     60  55  83 SW6       29.92S
WALLOPS ISLAND PTSUNNY   66  59  78 SE7       29.92S
ACCOMACK*      PTSUNNY   69  60  71 S10       29.90S
$$

NCZ012>017-030>032-242100-
NORTH CENTRAL AND EASTERN NORTH CAROLINA

CITY           SKY/WX    TMP DP  RH WIND       PRES   REMARKS
ROANOKE RAPIDS MOCLDY    77  57  50 SW3       29.86F
RALEIGH        MOSUNNY   79  54  41 S7G16     29.85F
ELIZABETH CITY SUNNY     75  60  59 SE15      29.88F
AHOSKIE*         N/A     76  57  52 SE5       29.86F
EDENTON*       MOSUNNY   76  60  58 E9        29.88S
CURRITUCK*     SUNNY     72  59  64 E6        29.89F
KILL DEVIL HLS NOT AVBL
MANTEO         CLOUDY    73  61  64 SE5       29.90S
CAPE HATTERAS  SUNNY     74  60  61 SE13      29.87F HAZE
TARBORO*       NOT AVBL
GOLDSBORO      SUNNY     80  55  41 E5        29.83F
WASHINGTON     SUNNY     76  58  53 SE12      29.86S
GREENVILLE     SUNNY     77  57  50 S6        29.88S
NEW BERN       SUNNY     77  59  53 SE12      29.86F
WILMINGTON     MOSUNNY   75  59  57 SE9       29.85F
$$

VAZ048-242100-
ELSEWHERE

CITY           SKY/WX    TMP DP  RH WIND       PRES   REMARKS
HARRISBURG PA  MOSUNNY   74  50  42 S10G20    29.78F
BALTIMORE      MOSUNNY   72  55  55 SE13G22   29.83F
ANNAPOLIS      SUNNY     67  56  67 SE14      29.85F
ANDREWS AFB    PTSUNNY   73  54  49 S14G22    29.83F
PHILADELPHIA   PTSUNNY   74  54  49 S12       29.86F
HENDERSON NC   MOSUNNY   74  52  46 S9        29.86S
GREENSBORO     MOSUNNY   73  52  47 S10       29.84F
ROCKY MOUNT    MOSUNNY   76  56  49 CALM      29.85F
$$

VAZ100-242100-
MARINE

STATION/POSITION TIME  TEMP    WIND        PRES    WAVE   SWELL
                       AIR SEA DIR/SP/G            HT/PER HT/PER
                 (UTC) (F)     (DEG/KT/KT) (MB)    (FT/S) (FT/S)
CAPE MAY NJ      1948   60 46  140/ 10/ 13 1012.1F
LEWES DE         1948   68 44  170/  9/ 15 1011.9F
OCEAN-CITY-INLET 1948   52 48  210/  4/  5 1013.5F
WACHAPREAGUE VA  1948   65 57  170/  5/  6 1012.8S
THOMAS POINT MD  2000   57 45  170/ 10/ 12   N/A
GOOSES REEF MD   2000   53 45  160/ 10/ 12 1011.9
COVE POINT MD    1948   52     180/ 12/ 13 1012.0F
SOLOMONS ISLAND  1948   59 47  130/ 13/ 14   N/A
BISHOPS HEAD MD  1948   54 51  140/  8/  9 1012.1F
PINEY POINT MD   1948          130/ 11/ 11   N/A
POTOMAC MD       2000   54 49  150/ 12/ 12 1010.6    1
CAMBRIDGE MD     1948   72 44  180/  8/ 13 1010.8F
LEWISETTA VA     1948   60 46  130/  9/ 10 1010.8F
RAPPAHANNOCK LGT 1948          140/  9/ 10 1012.8F
YORK RVR RNG VA  1948   56     130/ 17/ 18 1011.2F
YORKTOWN VA      1948   63 50  120/ 10/ 12 1011.3F
JAMESTOWN VA     2000   71 55   80/  6/ 10   N/A     0
DOMINION TERM VA 1948   61      70/ 11/ 14 1011.6F
KIPTOPEKE VA     1948      51  130/ 11/ 15   N/A
CHES BAY BRIDGE  1948   56 49  110/ 11/ 14 1011.7F
CAPE HENRY VA    1948   62     140/ 12/ 14   N/A
WILLOUBY STN VA  1948   55      50/  9/ 10 1012.4F
S CRANEY ISL VA  1948   66     350/  4/  5 1011.1F
CAPE HENRY BUOY  1942      51                N/A     4/11   2/11
OFFSHORE WE BUOY 1951      51                N/A     5/ 8   2/13
64NM E OF VA BCH 1950   59 56   90/  6/  6 1012.6F   6/ 8   5/ 8
DUCK PIER NC     1948   62 51  100/  7/ 11 1011.9F
44100 DUCK FRF   1935      52                N/A     5/11   3/11
44056 DUCK FRF   1930      54                N/A     4/11   2/11
OREGON INLET NC  1942   66 55   70/  3/  6 1012.1F
HATTERAS NC      1948   70 62  110/  6/ 10 1011.4F
DIAMOND SHLS NC  1950   72 74  110/ 14/ 16 1011.1    7/ 9   7/ 9
CAPE LOOKOUT NC  2000   69      70/  4/  4 1010.9R
$$




USA.gov is the U.S. government's official web portal to all federal, state and local government web resources and services.